Temperature
25 24 23 23 22 21 20 20 20 20 20 20 20 19 19 19 19 19 19 19 19 19 19 19 19 19 19 19 19 19 19 19 19 18 18 18 18 18 18 18 18 18 18
26 25 24 23 22 21 20 20 20 20 20 20 20 20 19 19 19 19 19 19 19 19 19 19 19 19 19 19 19 19 19 19 19 19 18 18 18 19 18 18 18 18 18
26 25 24 23 22 21 21 21 20 20 20 20 19 20 20 19 19 19 19 19 19 19 19 19 19 19 19 19 19 19 19 19 19 19 19 19 19 18 18 18 18 18 18
27 25 24 23 23 22 21 21 20 20 20 20 20 20 20 19 19 19 19 19 19 19 19 19 19 19 19 19 19 19 19 19 19 19 19 19 19 19 18 18 18 18 18
27 26 25 24 23 22 22 21 21 20 20 20 20 20 20 20 20 19 19 19 19 19 19 19 19 19 19 19 19 19 18 19 19 19 19 19 19 19 19 18 18 18 18
28 26 25 24 23 23 22 21 21 21 20 20 20 20 20 20 20 20 19 19 19 19 19 19 19 19 19 19 18 18 18 18 19 19 18 19 19 19 19 18 18 18 18
28 27 25 24 24 23 22 22 21 21 21 20 20 20 20 20 20 20 19 19 19 19 19 19 19 19 19 18 18 18 18 18 18 18 18 18 18 18 19 18 18 18 18
28 27 26 25 24 23 23 22 21 21 21 20 20 20 20 20 20 20 19 19 19 19 19 19 19 18 18 18 18 18 18 18 18 18 18 18 18 18 18 18 18 18 18
28 27 26 25 24 24 23 22 22 21 21 21 20 20 20 20 20 20 19 19 19 19 19 19 19 19 18 18 18 18 18 18 18 18 18 18 18 18 18 18 18 18 18
28 27 26 25 24 24 23 22 22 21 21 21 21 20 20 20 20 20 19 19 19 19 19 19 19 18 18 18 18 18 18 17 17 17 17 17 17 17 17 17 17 17 17
28 27 26 25 25 24 23 22 22 21 21 21 21 20 20 20 20 20 19 19 19 19 19 19 18 18 18 18 17 17 17 17 17 17 17 17 17 17 17 17 17 17 17
28 27 26 25 25 24 23 23 22 21 21 21 21 20 20 20 20 20 19 19 19 19 19 19 18 18 18 18 17 17 17 17 17 17 16 17 17 17 17 17 17 17 17
27 27 26 25 25 24 23 23 22 22 21 21 20 20 20 20 20 19 19 19 19 19 19 18 18 18 18 18 17 17 17 17 17 16 16 16 16 16 16 16 16 16 16
27 26 25 25 24 24 23 23 22 22 21 21 20 20 20 20 19 19 19 19 19 19 18 18 18 18 18 17 17 17 17 17 16 16 16 16 16 16 16 16 16 16 16
26 26 25 24 24 23 23 23 22 22 22 21 21 20 20 20 19 19 19 19 19 18 18 18 18 18 18 17 17 17 16 16 16 16 16 16 16 16 16 16 16 16 16
26 25 24 24 23 23 22 22 22 21 21 21 21 20 20 19 19 19 19 18 18 18 18 18 18 18 17 17 17 17 16 16 16 16 16 16 16 16 16 16 15 15 15
25 24 24 23 23 22 22 22 21 21 21 20 20 20 19 19 19 18 18 18 18 18 18 18 17 17 17 17 17 17 16 16 16 16 16 15 15 16 16 15 15 15 15
24 24 23 23 23 22 22 21 21 21 20 20 20 19 19 19 18 18 18 18 17 17 17 17 17 17 17 17 17 16 16 16 16 16 16 15 15 15 15 15 15 15 15
24 23 23 22 22 22 21 21 20 20 20 20 19 19 19 18 18 18 17 17 17 17 17 17 17 17 17 17 16 16 16 16 15 15 15 15 15 15 15 15 15 15 15
23 22 22 22 21 21 21 20 20 19 19 19 19 19 18 18 18 18 17 17 17 17 16 16 16 16 16 16 16 16 16 15 15 15 15 15 15 15 15 15 15 15 15
22 21 21 21 21 20 20 20 19 19 19 18 18 18 18 17 17 17 17 17 16 16 16 16 16 16 16 16 16 15 15 15 15 15 15 15 15 15 15 15 15 14 14
21 21 20 20 20 20 19 19 19 18 18 18 17 17 17 17 17 17 16 16 16 16 16 15 15 15 15 15 15 15 15 15 15 15 15 15 14 14 14 14 14 14 14
20 20 20 19 19 19 19 18 18 18 18 17 17 17 17 16 16 16 16 16 16 15 15 15 15 15 15 15 15 15 15 15 15 15 15 14 14 14 14 14 14 14 14
19 19 19 18 18 18 18 18 17 17 17 17 16 16 16 16 16 15 15 15 15 15 15 15 15 15 15 15 15 15 15 14 14 14 14 14 14 14 14 14 14 13 13
19 18 18 18 17 17 17 17 17 17 16 16 16 16 16 16 15 15 15 15 15 15 15 15 15 15 15 15 15 14 14 14 14 14 14 14 14 13 13 13 13 13 13
18 18 17 17 17 17 17 16 16 16 16 16 16 16 15 15 15 15 15 15 15 14 14 14 14 14 14 14 14 14 14 14 14 13 13 13 13 13 13 13 13 13 13
Wind_Speed
13 13 13 13 12 10 8 7 6 5 3 2 2 2 2 2 2 3 4 3 2 1 1 1 1 1 2 1 1 0 1 2 1 1 1 2 3 3 3 3 2 3 4
14 13 13 12 12 11 9 8 7 6 5 3 2 2 2 2 2 2 3 3 3 2 2 1 0 1 1 1 1 1 1 2 2 2 1 1 1 2 3 3 4 3 3
15 15 13 12 12 11 11 9 7 6 6 5 3 2 2 1 1 3 2 2 2 2 1 2 1 1 1 1 1 1 2 2 2 2 1 1 2 1 1 2 2 2 1
15 15 14 13 12 12 11 9 8 6 6 5 4 4 4 3 3 3 3 3 2 2 2 2 2 1 0 1 2 1 2 2 2 2 2 2 1 1 1 1 2 3 3
15 15 15 13 12 12 11 10 8 7 6 5 5 3 3 3 2 3 3 3 3 2 1 2 2 1 1 1 1 0 1 1 1 1 1 2 2 3 2 1 2 2 3
14 14 14 12 11 11 10 11 9 7 6 6 5 4 3 2 2 2 3 4 3 2 2 2 1 1 1 1 1 1 2 1 1 2 2 1 1 2 2 3 3 2 2
12 14 14 14 11 11 11 10 10 8 7 6 5 5 4 4 4 3 4 3 2 2 2 2 1 1 1 1 1 2 2 2 2 2 2 2 2 2 1 2 2 1 1
11 12 13 13 12 11 11 10 10 9 8 7 6 5 5 4 3 4 3 2 2 2 2 2 2 2 1 2 1 2 3 2 2 3 3 2 2 2 1 1 1 1 1
12 12 12 12 11 10 9 10 10 9 9 8 6 5 5 4 3 3 3 2 2 2 2 2 2 2 2 2 1 2 2 2 2 3 2 2 2 2 2 1 1 1 2
11 10 10 11 11 11 9 9 9 9 8 8 8 7 6 5 4 3 4 3 2 1 2 2 2 2 2 2 3 2 2 2 2 2 1 1 2 2 2 2 1 1 1
10 11 10 10 10 10 10 10 9 9 8 8 7 6 6 6 5 5 4 3 3 3 3 3 3 3 2 2 2 3 3 2 2 3 2 2 2 1 3 2 2 2 1
8 9 9 9 9 9 9 9 8 9 8 7 7 6 5 5 5 5 5 4 4 4 3 3 3 3 2 2 3 4 3 3 3 3 2 2 2 1 2 2 2 2 1
6 8 8 8 7 7 7 8 8 8 8 7 7 6 6 6 5 5 4 4 4 4 4 4 3 3 2 3 3 3 3 3 3 3 2 3 2 2 2 2 2 2 2
6 6 6 5 5 5 5 6 7 7 7 7 7 6 6 6 5 5 4 4 4 4 4 4 3 3 3 2 2 2 3 3 2 2 2 2 2 2 3 3 2 3 3
5 5 5 5 4 4 4 4 5 5 5 6 6 6 6 5 4 4 4 4 4 5 4 3 3 2 2 3 2 3 3 2 2 2 1 1 1 1 1 2 2 3 2
4 4 4 4 4 4 3 3 3 4 4 4 4 4 5 5 4 4 4 4 4 3 3 3 3 3 3 1 2 2 2 1 2 2 2 2 2 2 1 2 4 3 3
3 3 2 3 3 4 3 3 3 3 4 4 4 4 4 4 4 4 3 3 3 3 3 3 3 2 0 0 0 1 2 2 2 2 2 3 1 2 2 2 4 4 4
3 2 2 2 3 3 4 3 3 3 4 4 4 3 3 4 3 3 3 3 2 3 3 3 3 2 1 1 0 2 3 3 2 1 1 0 1 2 2 2 2 2 3
2 2 2 2 2 1 2 3 3 3 4 4 3 3 3 4 4 3 3 2 2 2 2 2 2 2 1 2 1 1 2 2 2 2 1 1 0 0 2 2 3 3 3
2 2 1 1 2 2 2 3 3 3 3 3 3 4 4 4 4 4 3 2 2 2 2 2 2 3 2 2 2 2 2 2 2 2 2 1 2 1 1 2 3 4 4
3 2 1 2 2 2 2 2 2 2 2 2 2 3 3 4 4 3 3 3 2 2 2 3 2 2 2 3 3 3 2 2 2 2 2 1 3 4 3 3 3 4 4
3 3 2 2 3 2 2 2 2 2 3 2 3 3 2 3 4 3 3 3 3 3 3 3 3 2 2 2 2 3 3 3 2 2 1 0 2 3 3 3 4 5 4
3 3 4 4 3 2 2 2 2 3 4 4 3 3 3 2 2 3 3 3 2 2 2 2 2 2 1 1 2 3 3 3 2 2 1 1 2 2 3 5 6 5 3
2 3 3 3 3 3 3 3 3 3 4 4 3 3 3 3 3 2 2 2 1 1 1 1 1 1 1 1 1 1 1 2 2 3 3 4 5 4 4 3 3 3 3
2 2 3 3 3 3 3 3 3 3 3 3 3 3 3 4 3 3 2 2 1 1 1 1 1 1 1 1 1 1 1 1 1 1 2 2 1 2 2 3 2 2 2
2 2 2 3 3 2 2 2 2 3 3 3 2 2 3 3 4 4 3 4 3 2 2 2 2 2 2 3 2 1 1 1 1 1 1 2 2 2 3 3 2 2 1
Wind_Direction
163 160 160 158 155 151 153 156 159 150 160 166 174 184 165 174 158 145 141 143 152 128 96 59 128 106 97 97 101 173 236 229 192 183 222 242 211 201 200 203 199 178 168
161 161 164 164 161 158 159 160 168 168 178 179 186 195 173 175 150 128 134 147 153 174 152 119 203 122 148 163 188 204 237 247 195 188 183 237 220 248 220 185 194 191 165
167 167 169 168 166 165 169 175 170 171 179 190 193 190 173 174 146 142 137 154 168 160 134 135 159 185 167 154 224 213 238 248 235 212 207 214 212 195 198 199 173 156 182
170 169 173 174 172 172 171 165 165 173 178 194 204 203 183 181 179 160 155 169 181 172 166 158 168 218 150 154 239 179 256 238 254 223 225 228 232 209 189 227 183 183 194
173 171 174 175 175 174 171 164 162 172 180 194 199 209 203 191 175 164 164 173 179 185 173 173 184 189 177 198 255 247 269 259 270 274 248 237 241 239 208 215 215 212 197
169 167 169 167 173 173 171 164 162 171 180 193 196 199 203 204 192 193 185 196 187 185 185 186 181 201 185 211 224 248 245 272 292 292 292 276 264 255 221 221 222 214 219
165 166 167 169 173 175 174 167 166 173 183 191 197 196 202 207 202 217 216 218 195 182 198 167 152 203 199 207 203 218 246 254 268 279 283 287 280 273 269 239 247 231 229
164 166 167 169 174 178 174 169 169 175 182 189 192 197 204 213 208 217 231 211 218 188 169 156 160 195 211 216 208 228 217 222 238 253 263 281 288 294 274 269 284 270 247
170 167 166 168 170 175 175 172 168 173 182 187 187 191 197 218 219 204 216 222 215 205 158 165 175 188 201 231 229 242 250 228 229 255 266 266 286 302 307 308 292 265 265
166 160 166 169 170 175 175 172 171 173 178 184 192 197 198 208 208 211 217 216 208 192 162 177 190 203 206 218 231 239 236 227 222 227 253 268 299 305 310 300 305 296 286
168 164 167 166 168 172 175 177 172 175 182 188 191 194 188 198 203 208 219 214 201 197 196 195 201 211 214 224 232 236 243 231 232 240 225 228 262 303 310 314 312 303 295
161 163 160 161 166 173 176 175 177 182 187 188 186 191 189 193 199 206 205 202 202 209 209 203 213 221 213 220 232 243 234 232 234 239 238 238 236 228 272 292 285 284 272
151 155 156 159 166 170 171 175 180 185 187 186 186 187 193 193 197 206 197 192 202 209 212 203 208 218 221 229 230 237 234 237 242 231 231 241 245 253 269 272 290 294 290
140 147 141 138 145 153 160 171 186 187 189 186 188 186 194 197 196 202 203 200 206 211 209 209 208 209 215 236 237 237 237 232 233 230 235 245 239 256 281 278 287 295 303
139 135 134 136 141 146 162 178 184 184 188 186 191 191 190 193 188 196 201 201 205 212 204 206 201 196 207 229 229 234 230 226 232 226 214 219 201 236 272 293 313 306 300
146 138 136 146 155 162 176 179 185 181 175 183 187 175 179 187 190 196 197 201 200 206 205 202 190 205 226 243 214 224 238 220 225 236 230 215 191 186 233 267 267 263 265
134 128 139 158 168 175 171 176 176 169 165 169 171 169 178 187 193 196 190 203 205 203 199 189 183 185 165 297 257 232 243 234 221 224 241 266 265 182 221 250 246 248 245
133 132 145 150 169 179 172 163 163 163 167 168 176 175 177 182 177 180 184 193 195 194 189 186 186 166 168 159 173 284 236 247 241 226 213 213 294 311 327 286 275 257 243
109 122 145 156 135 134 152 154 160 159 168 173 177 177 181 178 176 184 180 178 183 188 187 171 167 158 165 181 161 251 232 236 233 227 222 246 244 335 336 318 307 299 288
97 105 124 113 124 126 129 150 161 155 162 174 178 174 171 173 173 176 173 171 178 178 179 179 174 169 174 187 191 213 245 239 221 195 191 207 215 221 224 247 272 280 284
102 97 110 112 100 106 124 134 148 157 152 151 156 163 170 169 158 159 161 161 174 173 182 186 178 174 174 188 203 198 248 272 247 221 212 212 193 211 229 242 255 263 280
114 114 110 106 100 105 125 137 139 125 115 117 125 128 137 160 155 158 165 171 175 178 191 193 179 166 156 177 217 199 226 280 280 274 279 116 172 202 236 256 273 279 285
104 100 103 95 98 120 144 150 123 116 121 122 122 120 119 116 128 145 153 163 176 196 191 189 184 161 149 160 199 202 229 269 264 293 283 227 221 230 246 255 264 277 275
108 107 108 105 89 89 101 120 116 108 115 126 135 142 137 129 117 120 126 131 149 187 185 193 180 160 150 158 157 218 246 272 268 289 283 250 241 246 271 278 257 252 256
105 111 116 110 98 92 103 108 119 130 139 146 152 151 139 131 121 111 95 120 106 153 199 175 147 179 186 217 174 183 233 265 287 271 267 267 247 248 251 253 252 252 245
114 113 120 116 110 102 106 100 119 137 146 155 165 171 161 147 146 142 126 64 91 111 125 115 120 108 133 159 160 166 186 243 207 201 243 257 260 270 279 279 275 271 272
Height
1512 1515 1519 1521 1523 1525 1527 1528 1530 1531 1532 1534 1535 1536 1537 1538 1538 1539 1539 1539 1540 1540 1541 1541 1542 1542 1542 1543 1543 1543 1544 1545 1545 1546 1546 1547 1547 1547 1548 1548 1548 1548 1548
1510 1514 1517 1520 1522 1524 1526 1528 1529 1530 1532 1533 1534 1536 1537 1537 1538 1538 1538 1539 1539 1540 1541 1541 1541 1541 1542 1542 1543 1543 1543 1544 1545 1545 1545 1546 1547 1546 1546 1546 1546 1547 1547
1507 1511 1515 1518 1521 1523 1524 1527 1528 1530 1531 1532 1534 1536 1536 1537 1538 1538 1538 1539 1539 1539 1540 1540 1540 1541 1541 1541 1542 1542 1542 1543 1543 1544 1544 1544 1544 1545 1545 1545 1545 1545 1546
1504 1508 1512 1516 1519 1521 1523 1525 1527 1529 1530 1532 1533 1535 1535 1536 1537 1537 1538 1538 1539 1539 1539 1539 1540 1540 1540 1540 1540 1540 1541 1541 1542 1542 1542 1543 1543 1543 1543 1544 1544 1544 1543
1500 1505 1509 1513 1517 1520 1522 1523 1525 1527 1529 1530 1532 1533 1535 1536 1537 1537 1537 1538 1538 1538 1538 1538 1538 1538 1538 1539 1539 1539 1539 1539 1539 1540 1540 1541 1541 1542 1542 1542 1542 1542 1542
1497 1502 1507 1511 1515 1518 1521 1522 1524 1525 1527 1529 1531 1532 1533 1534 1535 1536 1536 1536 1537 1537 1537 1537 1537 1537 1537 1537 1537 1537 1538 1538 1538 1538 1538 1539 1539 1540 1540 1540 1540 1540 1540
1495 1500 1504 1509 1512 1515 1518 1520 1522 1523 1525 1527 1529 1530 1531 1532 1533 1534 1535 1535 1536 1536 1535 1535 1535 1535 1535 1535 1536 1536 1536 1536 1536 1536 1536 1537 1537 1538 1538 1538 1538 1538 1538
1493 1498 1502 1506 1510 1513 1516 1518 1520 1521 1524 1525 1527 1528 1529 1530 1531 1532 1533 1534 1534 1534 1534 1534 1534 1534 1534 1534 1534 1534 1534 1534 1534 1534 1534 1534 1535 1536 1536 1536 1536 1536 1536
1492 1496 1500 1504 1507 1511 1514 1516 1518 1519 1521 1523 1524 1526 1527 1528 1530 1530 1531 1532 1532 1533 1532 1532 1532 1532 1532 1532 1532 1531 1531 1531 1532 1532 1532 1532 1532 1533 1533 1534 1534 1535 1534
1490 1494 1499 1502 1505 1508 1511 1514 1516 1517 1519 1521 1522 1524 1525 1526 1527 1528 1529 1530 1530 1530 1530 1530 1530 1530 1530 1529 1529 1529 1529 1529 1529 1529 1530 1530 1530 1531 1531 1532 1532 1532 1532
1489 1493 1496 1500 1503 1506 1509 1512 1514 1515 1517 1518 1520 1521 1522 1524 1525 1525 1526 1527 1527 1528 1528 1528 1528 1528 1527 1527 1527 1526 1526 1526 1526 1527 1527 1527 1527 1528 1528 1529 1529 1529 1529
1487 1491 1494 1498 1501 1504 1507 1509 1511 1513 1514 1516 1517 1519 1520 1521 1522 1523 1523 1524 1525 1525 1526 1526 1526 1526 1525 1525 1524 1523 1523 1524 1524 1524 1525 1525 1525 1525 1526 1526 1527 1527 1527
1487 1490 1493 1496 1499 1502 1505 1507 1509 1511 1512 1514 1515 1516 1517 1518 1519 1520 1521 1521 1522 1523 1523 1523 1523 1523 1523 1522 1522 1521 1521 1521 1522 1522 1522 1523 1523 1523 1524 1524 1524 1524 1525
1486 1489 1492 1494 1497 1500 1502 1505 1507 1509 1510 1511 1512 1513 1514 1515 1516 1517 1518 1519 1520 1520 1520 1520 1520 1520 1520 1520 1520 1519 1519 1519 1519 1519 1520 1520 1521 1521 1521 1522 1522 1522 1522
1486 1489 1491 1493 1496 1498 1500 1503 1504 1506 1507 1508 1509 1510 1511 1513 1514 1515 1516 1516 1517 1517 1517 1518 1518 1518 1518 1518 1517 1517 1517 1517 1517 1517 1517 1518 1518 1518 1519 1519 1519 1519 1519
1486 1488 1490 1492 1494 1496 1498 1499 1501 1503 1504 1505 1506 1507 1508 1509 1511 1512 1513 1513 1514 1514 1515 1515 1515 1515 1516 1516 1515 1515 1515 1515 1515 1515 1515 1515 1516 1516 1516 1516 1516 1517 1517
1485 1487 1489 1490 1492 1493 1495 1497 1498 1499 1501 1502 1503 1504 1505 1506 1507 1509 1510 1510 1511 1512 1512 1513 1513 1513 1513 1513 1513 1513 1513 1513 1513 1513 1513 1513 1514 1513 1513 1513 1513 1513 1514
1484 1486 1487 1488 1490 1491 1493 1494 1495 1496 1497 1499 1500 1501 1502 1503 1504 1505 1506 1507 1508 1509 1509 1510 1510 1510 1510 1511 1511 1511 1511 1511 1511 1511 1511 1511 1511 1510 1511 1510 1510 1510 1510
1483 1484 1486 1487 1488 1489 1490 1491 1492 1493 1494 1495 1496 1498 1499 1500 1501 1502 1503 1504 1505 1506 1507 1507 1507 1507 1507 1508 1508 1508 1508 1509 1509 1509 1509 1509 1509 1508 1508 1508 1508 1507 1507
1481 1483 1484 1485 1485 1486 1488 1489 1489 1490 1491 1492 1494 1495 1496 1497 1497 1498 1500 1501 1502 1503 1504 1504 1505 1505 1505 1505 1506 1506 1506 1506 1506 1507 1507 1507 1507 1506 1506 1506 1505 1504 1504
1480 1481 1482 1483 1484 1484 1486 1486 1487 1488 1489 1490 1491 1492 1493 1494 1495 1496 1497 1499 1500 1501 1502 1502 1503 1503 1503 1503 1504 1504 1504 1504 1504 1504 1504 1505 1504 1504 1504 1503 1502 1502 1501
1479 1480 1480 1481 1482 1483 1484 1484 1485 1486 1487 1488 1489 1489 1490 1492 1492 1493 1495 1496 1497 1498 1499 1500 1500 1501 1501 1501 1501 1502 1502 1502 1502 1502 1503 1503 1502 1502 1501 1501 1500 1500 1499
1479 1479 1479 1480 1481 1482 1482 1483 1484 1484 1485 1486 1486 1487 1488 1489 1490 1491 1492 1493 1495 1496 1497 1498 1498 1498 1499 1499 1499 1499 1500 1500 1500 1500 1500 1500 1500 1500 1499 1498 1498 1497 1496
1478 1478 1479 1479 1479 1480 1481 1481 1482 1483 1483 1484 1485 1486 1487 1488 1489 1490 1491 1492 1493 1494 1495 1496 1496 1497 1497 1497 1497 1497 1497 1498 1498 1498 1498 1498 1498 1497 1497 1496 1495 1495 1494
1477 1477 1477 1477 1478 1479 1479 1479 1480 1481 1482 1483 1484 1485 1486 1486 1487 1488 1489 1491 1492 1493 1494 1494 1494 1495 1494 1495 1495 1495 1496 1496 1496 1496 1496 1495 1495 1495 1494 1494 1493 1492 1491
1475 1476 1476 1476 1476 1477 1477 1478 1479 1480 1481 1482 1483 1484 1485 1485 1486 1487 1488 1489 1490 1491 1492 1493 1493 1493 1493 1493 1493 1494 1494 1494 1494 1494 1493 1493 1493 1493 1492 1492 1491 1490 1489